Regional Weather Roundup
Issued by NWS

Home | Current Version | Previous Version | Graphics & Text | Print | Product List | Glossary On
Versions: 1 2 3 4 5 6 7 8 9 10 11 12 13 14 15 16 17 18 19 20 21 22 23 24 25 26 27 28 29 30 31 32 33 34 35 36 37 38 39 40 41 42 43 44 45 46 47 48 49 50
000
ASUS43 KIND 181309
RWRIN

WEATHER ROUNDUP FOR INDIANA
NATIONAL WEATHER SERVICE INDIANAPOLIS IN
900 AM EDT FRI APR 18 2014

NOTE: "FAIR" INDICATES FEW OR NO CLOUDS BELOW 12,000 FEET WITH NO
SIGNIFICANT WEATHER AND/OR OBSTRUCTIONS TO VISIBILITY.

* - STATION DOES NOT REPORT WEATHER SUCH AS PRECIPITATION OR FOG.

+ - STATION NOT QUALITY CONTROLLED BY THE NATIONAL WEATHER SERVICE.
    USE DATA WITH CAUTION...ESPECIALLY DEWPOINT AND RELATIVE
    HUMIDITY OBSERVATIONS.

INZ001>003-010>013-019-020-181400-
NORTHWEST INDIANA

CITY           SKY/WX    TMP DP  RH WIND       PRES   REMARKS
GARY /AIRPORT/ MOSUNNY   45  37  76 N5        30.32R HAZE
LA PORTE +     MOSUNNY   46  39  75 N5        30.30R
MICHIGAN CITY+ MOSUNNY   45  36  70 CALM      30.30S
MONTICELLO +   CLOUDY    50  43  77 CALM      30.29S
RENSSELAER +   PTSUNNY   50  43  76 CALM      30.29F
VALPARAISO     SUNNY     46  38  73 N5        30.30R

$$

LMZ046-743>745-181400-
SOUTHERN LAKE MICHIGAN

STATION/POSITION TIME  TEMP WIND        PRES
                       AIR  DIR/SP/G
                 (UTC) (F)  (DEG/KT/KT) (MB)
MICHIGAN CITY    1300   40   10/  4/  5   N/A

$$

INZ004-005-014>016-021>024-181400-
NORTH CENTRAL INDIANA

CITY           SKY/WX    TMP DP  RH WIND       PRES   REMARKS
GOSHEN         CLOUDY    50  45  83 CALM      30.27S HAZE
LOGANSPORT +   MOSUNNY   50  41  71 CALM      30.30S
PERU/GRISSOM   MOSUNNY   51  46  82 NW3       30.29R
ROCHESTER +    MOSUNNY   52  43  71 CALM      30.30S
SOUTH BEND     MOSUNNY   50  42  74 N5        30.30R
WARSAW +       CLOUDY    46  43  87 CALM      30.28S

$$

INZ006>009-017-018-025>027-181400-
NORTHEAST INDIANA

CITY           SKY/WX    TMP DP  RH WIND       PRES   REMARKS
ANGOLA *+      PTSUNNY   48  45  87 CALM      30.27S
AUBURN +       CLOUDY    52  37  58 CALM      30.28F
FORT WAYNE     PTSUNNY   51  41  68 CALM      30.29S

$$

INZ028-029-035-036-043>045-051>053-181400-
WEST CENTRAL INDIANA

CITY           SKY/WX    TMP DP  RH WIND       PRES   REMARKS
GREENCASTLE +  MOSUNNY   46  41  81 CALM      30.29R
LAFAYETTE      MOSUNNY   52  42  69 N5        30.30R
TERRE HAUTE    SUNNY     51  41  68 CALM      30.29R

$$

INZ030>032-037>040-046>048-054>057-064-065-181400-
CENTRAL INDIANA

CITY           SKY/WX    TMP DP  RH WIND       PRES   REMARKS
ANDERSON       SUNNY     48  39  71 CALM      30.30R
CP ATTERBURY + SUNNY     46  41  81 CALM      30.30R
GREENWOOD *+   PTSUNNY   52  41  66 CALM      30.29
INDIANAPOLIS   PTSUNNY   49  40  71 CALM      30.29R
-EAGLE CREEK   MOSUNNY   48  41  76 CALM      30.28R
KOKOMO *+      PTSUNNY   50  43  76 W3        30.29R
MARION +       PTSUNNY   46  39  76 CALM      30.29S
MT COMFORT *+  MOSUNNY   50  41  71 CALM      30.29S
SHELBYVILLE    SUNNY     49  42  77 CALM      30.29R
ZIONSVILLE +   PTSUNNY   49  42  76 CALM      30.28F

$$

INZ033-034-041-042-049-050-058-059-181400-
EAST CENTRAL INDIANA

CITY           SKY/WX    TMP DP  RH WIND       PRES   REMARKS
MUNCIE         PTSUNNY   50  39  66 S3        30.29S

$$

INZ060-061-067>069-081>083-085>088-181400-
SOUTHWEST INDIANA

CITY           SKY/WX    TMP DP  RH WIND       PRES   REMARKS
EVANSVILLE     MOSUNNY   50  43  77 CALM      30.29R
HUNTINGBURG *+ SUNNY     46  39  76 SE3       30.29S
WASHINGTON +   MOSUNNY   48  43  83 CALM      30.28R

$$

INZ062-063-066-070>080-084-089>092-181400-
SOUTH CENTRAL AND SOUTHEAST INDIANA

CITY           SKY/WX    TMP DP  RH WIND       PRES   REMARKS
BEDFORD +      MOSUNNY   50  37  62 CALM      30.29
BLOOMINGTON    PTSUNNY   49  42  77 CALM      30.28R

$$




USA.gov is the U.S. government's official web portal to all federal, state and local government web resources and services.